[Date Prev][Date Next][Thread Prev][Thread Next] - [Date Index][Thread Index][Author Index]

2 Line ISS Keps 11-27



ISS
1 25544U 98067A   01331.21823275  .00051000  00000-0  56502-3 0  7634
2 25544  51.6415 348.6383 0010541  24.6992  52.9180 15.62395971172522


----
Via the sarex mailing list at AMSAT.ORG courtesy of AMSAT-NA.
To unsubscribe, send "unsubscribe sarex" to Majordomo@amsat.org



AMSAT Top AMSAT Home